Regional Weather Roundup
Issued by NWS

Home | Current Version | Previous Version | Graphics & Text | Print | Product List | Glossary On
Versions: 1 2 3 4 5 6 7 8 9 10 11 12 13 14 15 16 17 18 19 20 21 22 23 24 25 26 27 28 29 30 31 32 33 34 35 36 37 38 39 40 41 42 43 44 45 46 47 48 49 50
000
ASUS45 KTFX 170219
RWRMT
MONTANA HOURLY WEATHER ROUNDUP
NATIONAL WEATHER SERVICE GREAT FALLS MT
819 PM MDT TUE SEP 16 2014

NOTE: "FAIR" INDICATES FEW OR NO CLOUDS BELOW 12000 FEET WITH NO
SIGNIFICANT WEATHER AND/OR OBSTRUCTIONS TO VISIBILITY.

* THESE STATIONS ARE NOT UNDER NWS QUALITY CONTROL. THEY DO NOT
   REPORT WEATHER SUCH AS PRECIPITATION OR FOG.

MTZ001>007-043-170300-
WEST OF THE DIVIDE
CITY           SKY/WX    TMP DP  RH WIND       PRES   REMARKS
KALISPELL      CLOUDY    61  45  56 CALM      29.89F
MISSOULA       MOCLDY    72  41  33 N6        29.91S
BUTTE          PTCLDY    66  41  40 S3        30.05S
MULLAN PASS    MOCLDY    64  37  37 CALM      30.06F
* ESSEX        N/A       62  49  63 SE1        N/A
* LINCOLN      N/A       71  43  37 S2G7       N/A
* LOOKOUT PASS N/A       67  43  42 N2         N/A
* POLSON       N/A       63  44  50 N/A        N/A
* RONAN APT    CLOUDY    66  45  47 N/A        N/A
* SEELEY LAKE  N/A       71  40  33 W1G12      N/A
* THOMP F APT  CLOUDY    63  42  46 N12G17     N/A
$$

MTZ008-052>055-170300-
SOUTHWEST MONTANA
CITY           SKY/WX    TMP DP  RH WIND       PRES   REMARKS
BOZEMAN        MOCLDY    66  46  49 SE3       29.99F
DILLON         PTCLDY    68  43  40 SE13G20   30.03F
W YELLOWSTONE  CLOUDY    61  41  48 NW5       30.17R
* THREE FORKS  PTCLDY    70  64  81 N/A        N/A
* BOULDER HILL N/A       63  37  38 S2         N/A
* MONIDA PASS  N/A       58  45  62 SW1        N/A
* RAYNOLDS PAS N/A       65  62  90 NW6        N/A
* WHITEHALL    N/A       75  43  32 W2         N/A
* WISE RIVER   N/A       70  39  32 SW4G9      N/A
$$

MTZ009>010-012-014-046-048-049-054-170300-
EAST SLOPES AND CENTRAL MONTANA
CITY           SKY/WX    TMP DP  RH WIND       PRES   REMARKS
CUT BANK       CLOUDY    70  39  32 W12       29.91S
GREAT FALLS    CLOUDY    68  45  44 S7        29.90S
HELENA         MOCLDY    70  48  46 SW7       29.93R
MALMSTROM AFB  CLOUDY    66  48  52 SE7       29.90F
* CONRAD       CLOUDY    68  46  45 N/A        N/A
* EAST GLACIER N/A       66  38  36 W8         N/A
* MONARCH      N/A       59  37  44 S4         N/A
* PENDROY      N/A       71  42  35 W20G25     N/A
* ROGERS PASS  N/A       63  42  46 NW4        N/A
* SAINT MARY   N/A       66  30  26 SE3G9      N/A
* SWEET GRASS  N/A       76  32  20 N/A        N/A
* WHITE SULPH  N/A       65  43  45 NE5        N/A
$$

MTZ011-013-016-021-035-040-045-047-050-051-170300-
NORTH CENTRAL MONTANA
CITY           SKY/WX    TMP DP  RH WIND       PRES   REMARKS
HAVRE          MOCLDY    63  48  58 SE8       29.87S
LEWISTOWN      CLOUDY    64  52  65 E7        29.96F
* CHINOOK      PTCLDY    64  54  70 SE3       29.87S
* FORT BENTON  CLOUDY    72  45  38 S3        29.87F
* CHESTER      N/A       71  37  29 SE4        N/A
* DENTON       N/A       64  43  47 NE4        N/A
* GEYSER       N/A       58  50  75 SW6        N/A
* JUDITH GAP   N/A       65  40  40 NW6        N/A
* LOMA         N/A       68  46  45 NE9        N/A
$$

MTZ017>020-022>027-061-062-170300-
NORTHEAST MONTANA
CITY           SKY/WX    TMP DP  RH WIND       PRES   REMARKS
GLASGOW        PTCLDY    61  43  52 SE8       29.88F
JORDAN         CLOUDY    63  52  68 CALM      29.90S
SIDNEY         CLEAR     54  41  62 NW5       29.92S
WOLF POINT     PTCLDY    63  43  48 NE3       29.89S
* BEAVER HILL  N/A       62  43  50 E5         N/A
* CIRCLE       N/A       63  48  58 N/A        N/A
* LINDSAY DVD  N/A       61  42  50 N/A        N/A
* NAVAJO       N/A       64  39  40 SW6        N/A
* SACO         N/A       63  50  63 E9         N/A
$$

MTZ028>042-056>058-170300-
SOUTHCENTRAL AND SOUTHEAST MONTANA
CITY           SKY/WX    TMP DP  RH WIND       PRES   REMARKS
BAKER          MOCLDY    63  46  54 CALM      29.95S
BILLINGS       MOCLDY    75  37  25 SW8       29.94S
LIVINGSTON     CLOUDY    75  37  25 W20       29.97R
MILES CITY     CLOUDY    72  45  38 E6        29.91S
* LAUREL APT   MOCLDY    72  37  28 N/A        N/A
* ROUNDUP APT  CLOUDY    70  46  42 N/A        N/A
* ALZADA       N/A       68  40  36 N5         N/A
* HYSHAM       N/A       68  45  44 E2         N/A
* LAME DEER    N/A       69  44  41 E4         N/A
* REED POINT   N/A       70  42  36 E1         N/A
* ROSCOE HILL  N/A       70  29  22 S8         N/A
$$

REGIONAL REPORTS...DAKOTAS
CITY           SKY/WX    TMP DP  RH WIND       PRES   REMARKS
WILLISTON      CLEAR     50  39  66 CALM      29.91S
DICKINSON      PTCLDY    55  45  69 E7        29.92S
BEACH          N/A       54  46  74 S3        29.95R
CROSBY         CLEAR     50  46  86 S7        29.91S
TIOGA          CLEAR     50  37  61 CALM      29.96R
WATFORD CITY   HAZE      54  36  51 CALM      29.90S VSB 3
BISMARCK       CLEAR     55  48  77 E7        29.92R
GRAND FORKS    CLEAR     54  46  74 S7        29.92R
FARGO          CLEAR     63  45  52 SE8       29.93F
BUFFALO SD     MOCLDY    66  46  49 NE8       29.89R
RAPID CITY     CLEAR     57  48  72 W3        29.95S
$$

REGIONAL REPORTS...WYOMING/IDAHO/WASHINGTON
CITY           SKY/WX    TMP DP  RH WIND       PRES   REMARKS
GILLETTE       PTCLDY    54  43  67 SW5       30.01S
SHERIDAN       PTCLDY    61  46  58 CALM      30.00R
CODY           PTCLDY    64  43  47 CALM      30.07S
YELLOWSTONE LA PTCLDY    50  41  71 CALM      30.27R
SALMON         PTCLDY    63  45  52 E6        29.94F
MULLAN PASS    MOCLDY    64  37  37 CALM      30.06S
SAND POINT     MOCLDY    63  54  73 CALM      29.84S
SPOKANE        CLOUDY    81  34  18 SE3       29.83S
$$

REGIONAL REPORTS...ALBERTA
CITY           SKY/WX    TMP DP  RH WIND       PRES   REMARKS
CALGARY        FAIR      66  43  43 E8        29.89R
LETHBRIDGE     MOCLDY    66  43  43 E6        29.85S
MEDICINE HAT   FAIR      68  48  49 E8        29.84S
EDMONTON       FAIR      63  43  48 N2        29.83R
WATERTON GATE  N/A       63  41  45 S7         N/A
CARDSTON       N/A       66  45  47 SW7        N/A
MILK RIVER     N/A       59  45  60 S2         N/A
$$

REGIONAL REPORTS...SASKATCHEWAN
CITY           SKY/WX    TMP DP  RH WIND       PRES   REMARKS
SWIFT CURRENT  CLEAR     68  39  35 N3        29.87S
REGINA         FAIR      63  46  54 NE2       29.88S
VAL MARIE      N/A       57  46  67 SE2        N/A
ASSINIBOIA     N/A       64  41  43 S6         N/A
CORONACH       N/A       54  41  62 W2         N/A

$$



USA.gov is the U.S. government's official web portal to all federal, state and local government web resources and services.